{"data":{"norad_id":45225,"intl_designator":"2020-012AZ","name":"STARLINK-1215","alt_names":[],"object_type":"PAYLOAD","status":"ACTIVE","operator":null,"country":"US","launch_date":"2020-02-17","launch_site_code":"AFETR","launch_vehicle":null,"mission":null,"orbit_class":"UNKNOWN","rcs_meters":null,"size_class":null,"mass_kg":null,"dimensions":null,"purposes":["comms"],"wikipedia_slug":null,"has_3d_model":false,"image_url":null,"decayed_at":null,"tle_current":{"epoch":"2026-09-20T00:24:28.290240Z","epoch_age_seconds":56199,"freshness":"FRESH","line1":"1 45225U 20012AZ  26263.01699410  .00042309  00000+0  92217-3 0  9993","line2":"2 45225  53.1494 167.6251 0002578 131.8209 228.3019 15.43860146365344","mean_motion":15.43860146,"eccentricity":0.0002578,"inclination_deg":53.1494,"raan_deg":167.6251,"arg_perigee_deg":131.8209,"mean_anomaly_deg":228.3019,"bstar":0.00092217,"rev_number":36534,"period_min":93.272697253758,"perigee_km":432.97301106086,"apogee_km":436.48572496021,"semimajor_km":6812.8663680105,"source":"CELESTRAK","updated_at":"2026-09-20T09:00:38.228372Z"}}}